THOR AGENA B R/B, 426

Orbit data source: Space-Track

THOR AGENA B R/B, 426 is space debris in LEO originally from a launch on Sat, 29 Sep 1962 UTC via a THOR AGENA B launch vehicle from the Air Force Western Test Range (AFWTR). Debris objects in space refer to the collection of defunct objects orbiting the Earth. Examples of debris include non-operational satellites, rocket bodies, and fragments generated from explosions, collisions, or faulty payload assembly.

Loading next visibility...
THOR AGENA B R/B details
Identifier
426, 1962-049B
Orbit
LEO
Last TLE update16 hours ago
Origin
Flag of USGSFC (US)
ManufacturerGSFC
MissionSpacecraft
Bus & MotorTAVE, Unknown motor
Mass900 kg wet, 91 kg dry
Launch date (UTC)
1962-09-29 (62 years ago)
Launch vehicle
THOR AGENA B
Launch site
Air Force Western Test Range (AFWTR)
Object type
Payload
Rocket body
Debris
Shape & HBRCyl + 1 Nozzle, 6.3 m
Radar Cross Section8.306 m², Large (>1 m²)

Expand to show TLE details & history

TLE from 16 hours ago
0 THOR AGENA B R/B
1 00426U 62049B   25014.66917777  .00000102  00000-0  10751-3 0  9995
2 00426  80.4693  60.2480 0018682 124.2613 353.1810 13.68687685109197
Epoch: 2025-01-14T16:03Z
Definitive object data (Epoch: 2025-01-14T16:03:36.959Z)
Latitude61.18928°
Longitude-132.70725°
Altitude1,000.97 km
Speed7.364 km/s
True Right ascension14h 50m 16s
True Declination61° 02' 55"
Sunlit
Object was in daylight at TLE epoch
Visualization TLE readout
Latitude24.64313°
Longitude-120.08013°
Altitude995.535 km
Speed7.362 km/s
Apparent Right ascension17h 43m 50s
Apparent Declination-6° 14' 26"
Sunlit
Object is in daylight
Visualization observer readout
Local Sidereal Time08:41:35
Azimuth61.873° ENE
Elevation-37.888°
Doppler factor1
Orbital elements
Apogee altitude1,015.341 km
Perigee altitude987.767 km
Semi-major axis7,379.691 km
Eccentricity0.0018682
Inclination80.4693°
RAAN60.248°
Arg. of periapsis124.2613°
True anomaly353.15552°
Mean anomaly353.181°
Eccentric anomaly353.16827°
Mean motion3.42362 °/min
BSTAR0.00010751
Orbital period105.15 mins
Loading maneuver chart data...
Loading historical data...
Loading historical data...
Loading historical data...
Loading historical data...
Loading historical data...
Loading historical data...
Loading historical data...
Other satellites on launch #49 in the year 1962 (1962-09-29 UTC)

THOR AGENA B R/B Visibility forecast

Observer location: undefined°, undefined

Span
Click to sort rows by Start time (UTC) header in descending order
Start Az.
Max El. time (UTC)
Max El. Az.
Max El.
End time (UTC)
End Az.
7 mins2025-01-15 13:07:57.422Z26.786° NE2025-01-15 13:11:57.422Z68.407° E16.91°2025-01-15 13:14:57.422Z99.502° ESE
10 mins2025-01-15 14:53:57.422Z342.705° N2025-01-15 14:58:57.422Z237.904° WSW42.959°2025-01-15 15:03:57.422Z181.912° SSW
9 mins2025-01-16 02:41:57.422Z142.852° SSE2025-01-16 02:45:57.422Z95.019° ESE27.327°2025-01-16 02:50:57.422Z34.497° NE
10 mins2025-01-16 04:27:57.422Z226.629° WSW2025-01-16 04:31:57.422Z277.628° WNW31.79°2025-01-16 04:37:57.422Z353.801° N
|